Location: *
(42.3377°N, 71.0868°W)
Time: 05:12:26
(UTC+00:00)

Cosmos 1908 - Pass Details

Date: 09 April 2020
Orbit: 511 x 531 km, 82.5° (Epoch: 28 May)

Event Time Altitude Azimuth Distance (km) Brightness Sun altitude
Rises 23:47:47 0° 170° (S) 2,633 6.5 -5.8°
Reaches altitude 10° 23:49:59 10° 163° (SSE) 1,754 5.6 -6.2°
Maximum altitude 23:53:37 41° 93° (E) 775 3.6 -6.9°
Drops below altitude 10° 23:57:17 10° 23° (NNE) 1,780 5.9 -7.5°
Sets 23:59:31 0° 16° (NNE) 2,677 6.9 -7.9°
